STARLINK-32851, 62810

Orbit data source: Space-Track

STARLINK-32851, 62810 is a payload satellite owned by SpaceX/Seattle (US) in LEO that was launched on Fri, 24 Jan 2025 UTC via an FALCON 9 launch vehicle from the Air Force Western Test Range (AFWTR). Payload-class satellites include a variety of spacecraft equipped with specific instruments for various scientific and technological missions. These include communications satellites like Starlink; space stations such as the ISS; scientific satellites like the Hubble; Earth observation satellites from companies like Planet Labs, Umbra, and HawkEye 360; GPS; miniature CubeSats for education and research; and military/defense satellites.

Loading next visibility...
Identifier
62810, 2025-018E
Orbit
LEO
Country
Flag of USUS
Related business
Manufacturer
SpaceX/Seattle
Mission
Operational Commercial Communications
Bus & Motor
STARLINK V2M, Unknown motor
Mass
730 kg wet, ~700 kg dry
Launch date (UTC)
2025-01-24 (1 year ago)
Launch vehicle
FALCON 9
Launch site
Air Force Western Test Range (AFWTR)
Object type
Payload
Rocket body
Debris
Shape & HBR
Box + 2 Pan, 17.7 m
Radar Cross Section
33.884 m², Large (>1 m²)

Expand to show TLE details & history
Last TLE update: 19 hours ago

TLE from 19 hours ago
0 STARLINK-32851
1 62810U 25018E   26033.51364698  .00042804  00000-0  14500-2 0  9999
2 62810  53.1580 112.9277 0001107  62.0703 298.0409 15.30177459 57788
Epoch: 2026-02-02T12:19Z
TLE epoch observation values (Epoch: 2026-02-02T12:19:39.099Z)
Latitude
-0.00006°
Longitude
155.3069°
Altitude
475.825 km
Speed
7.629 km/s
True Right ascension
07h 31m 42s
True Declination
0° 00' 00"
Sunlit
Object was in full shadow at epoch
Visualization orbit readout
Latitude
Unknown
Longitude
Unknown
Altitude
Unknown
Speed
Unknown
Apparent Right ascension
Unknown
Apparent Declination
Unknown
Sunlit
N/A
Visualization observer readout
Local Sidereal Time
08:59:20
Azimuth
Unknown
Elevation
Unknown
Doppler factor
Unknown
Orbital elements
Apogee altitude
476.298 km
Perigee altitude
474.78 km
Semi-major axis
6,853.676 km
Eccentricity
0.00011
Inclination
53.158°
RAAN
112.9277°
Arg. of periapsis
62.0703°
True anomaly
298.0297°
Mean anomaly
298.0409°
Eccentric anomaly
298.0353°
Mean motion
3.82523 °/min
Orbital period
94.11 mins
BSTAR
0.00145
Loading maneuver chart data...
Computing Atmospheric mass density...
Loading historical data...
Loading historical data...
Loading historical data...
Loading historical data...
Loading historical data...
Loading historical data...
Loading historical data...

Documentation

Showing up to 5 results
|